YAOGAN 17C

Satellite information

Favourite Embed

Satellite Type and Status

PAYLOADIN ORBIT

Key statistics

Satellite YAOGAN 17C at a glance.

Uptime

4486

Days in orbit

Revolutions

≈ 13.5

Per day

Orbit

LEO

Low Earth Orbit

Inclination

63.4

Latest

Satellite identification and parameters

Extended collection of information and parameters for YAOGAN 17C.

Object identification

Identified? True

Debris? False

Object name: YAOGAN 17C

International designator: 2013-046C

Object number (NORAD): 39241

Object ID (CCSDS): 39241

Country: PEOPLES REPUBLIC OF CHINA (PRC)

Current information (Y/N): Y

RCS size: LARGE

Orbital parameters

Period: 107.027 minutes

Inclination: 63.3871 deg

SMA: 7467.171 km

Apoapsis: 1395.634 km

Periapsis: 782.438 km

RAAN: 211.5592 deg

Eccentricy: 0.0410595

Argument of periapsis: 10.6234 deg

Mean anomaly: 350.3145 deg

Mean motion: 13.45453275 rev/day

Mean motion (dot): 0.00000012 rev/day2

B* drag term: 0.0001042959 1/REarth

Two-line elements (TLE)

Creation date: Dec. 12, 2025, 10:14 a.m.

Reference frame: TEME

Reference center: EARTH

Epoch: Dec. 12, 2025, 7:44 a.m. UTC

TLE line 0: 0 YAOGAN 17C

TLE line 1: 1 39241U 13046C 25346.32280740 .00000012 00000-0 10430-3 0 9993

TLE line 2: 2 39241 63.3871 211.5592 0410595 10.6234 350.3145 13.45453275603238

Live tracking on map

Real-time ground track for satellite YAOGAN 17C.

In-orbit conjunctions

There are no conjunctions computed for YAOGAN 17C, at the moment. Check back to stay up to date, as we update our databases every day.

Go to all conjunctions

Associated space launch

YAOGAN 17C was lifted into orbit during the mission ‘Long March 4C | Yaogan 17A, B & C’, on board a Long March 4C space rocket.

The launch took place on Sept. 1, 2013, 7:16 p.m. from Launch Area 94 (SLS-2 / 603).

For more information about the launch, click the button.

Launch to space Long March 4C | Yaogan 17A, B & C
Long March 4C | Yaogan 17A, B & C

Agency: N/A

Status: Launch Successful

Launch date: Sept. 1, 2013, 7:16 p.m. UTC

Rocket: Long March 4C

Launch pad: Launch Area 94 (SLS-2 / 603)

Location: Jiuquan Satellite Launch Center, People's Republic of China

...

Latest news about this satellite

There are no fresh news available about this satellite. Check back as we update our databases every day.


Newsletter sign-up

Weekly statistics, charts and insights to help you stay on top of the space industry.